STARLINK-33959, 63817

Orbit data source: Space-Track

STARLINK-33959, 63817 is a payload satellite owned by SpaceX/Seattle (US) in LEO that was launched on Sun, 04 May 2025 UTC via an FALCON 9 launch vehicle from the Air Force Eastern Test Range (AFETR). Payload-class satellites include a variety of spacecraft equipped with specific instruments for various scientific and technological missions. These include communications satellites like Starlink; space stations such as the ISS; scientific satellites like the Hubble; Earth observation satellites from companies like Planet Labs, Umbra, and HawkEye 360; GPS; miniature CubeSats for education and research; and military/defense satellites.

Loading next visibility...
Identifier
63817, 2025-092P
Orbit
LEO
Country
Flag of USUS
Related business
Manufacturer
SpaceX/Seattle
Mission
Operational Commercial Communications
Bus & Motor
STARLINK V2MO, Unknown motor
Mass
575 kg wet, ~530 kg dry
Launch date (UTC)
2025-05-04 (9 months ago)
Launch vehicle
FALCON 9
Launch site
Air Force Eastern Test Range (AFETR)
Object type
Payload
Rocket body
Debris
Shape & HBR
Box + 2 Pan, 17.7 m
Radar Cross Section
36.964 m², Large (>1 m²)

Expand to show TLE details & history
Last TLE update: 1 day ago

TLE from 1 day ago
0 STARLINK-33959
1 63817U 25092P   26034.32295173  .00026643  00000-0  97340-3 0  9997
2 63817  43.0035   6.2056 0001273 264.4313  95.6393 15.27607798 43416
Epoch: 2026-02-03T07:45Z
TLE epoch observation values (Epoch: 2026-02-03T07:45:03.029Z)
Latitude
-0.00005°
Longitude
116.43738°
Altitude
482.828 km
Speed
7.626 km/s
True Right ascension
00h 24m 49s
True Declination
0° 00' 00"
Sunlit
Object was in daylight at epoch
Visualization orbit readout
Latitude
Unknown
Longitude
Unknown
Altitude
Unknown
Speed
Unknown
Apparent Right ascension
Unknown
Apparent Declination
Unknown
Sunlit
N/A
Visualization observer readout
Local Sidereal Time
13:20:36
Azimuth
Unknown
Elevation
Unknown
Doppler factor
Unknown
Orbital elements
Apogee altitude
485.784 km
Perigee altitude
484.037 km
Semi-major axis
6,863.047 km
Eccentricity
0.00013
Inclination
43.0035°
RAAN
6.2056°
Arg. of periapsis
264.4313°
True anomaly
95.65382°
Mean anomaly
95.6393°
Eccentric anomaly
95.64656°
Mean motion
3.8174 °/min
Orbital period
94.31 mins
BSTAR
0.0009734
Loading maneuver chart data...
Computing Atmospheric mass density...
Loading historical data...
Loading historical data...
Loading historical data...
Loading historical data...
Loading historical data...
Loading historical data...
Loading historical data...

Documentation

Showing up to 5 results
|